Time,TemperatureF,DewpointF,PressureIn,WindDirection,WindDirectionDegrees,WindSpeedMPH,WindSpeedGustMPH,Humidity,HourlyPrecipIn,Conditions,Clouds,dailyrainin,SoftwareType,DateUTC
2013-01-27 00:00:00,12.3,9.1,30.06,ENE,65,3.0,5.0,87,0.00,,,0.00,VWS V14.01,2013-01-27 06:00:00,
2013-01-27 00:01:00,11.8,8.6,30.06,ENE,64,1.0,5.0,87,0.00,,,0.00,VWS V14.01,2013-01-27 06:01:00,
2013-01-27 00:06:00,11.5,8.6,30.05,ENE,65,3.0,5.0,88,0.00,,,0.00,VWS V14.01,2013-01-27 06:06:00,
2013-01-27 00:11:00,11.4,8.5,30.06,ENE,65,3.0,4.0,88,0.00,,,0.00,VWS V14.01,2013-01-27 06:11:00,
2013-01-27 00:15:00,11.4,8.5,30.06,ENE,64,4.0,5.0,88,0.00,,,0.00,VWS V14.01,2013-01-27 06:15:00,
2013-01-27 00:16:00,11.3,8.4,30.05,ENE,65,0.0,4.0,88,0.00,,,0.00,VWS V14.01,2013-01-27 06:16:00,
2013-01-27 00:21:00,11.3,8.4,30.05,ENE,65,0.0,4.0,88,0.00,,,0.00,VWS V14.01,2013-01-27 06:21:00,
2013-01-27 00:26:00,11.4,8.7,30.05,ENE,64,0.0,0.0,89,0.00,,,0.00,VWS V14.01,2013-01-27 06:26:00,
2013-01-27 00:30:00,11.4,8.7,30.05,ENE,65,0.0,4.0,89,0.00,,,0.00,VWS V14.01,2013-01-27 06:30:00,
2013-01-27 00:31:00,11.3,8.6,30.04,ENE,64,0.0,0.0,89,0.00,,,0.00,VWS V14.01,2013-01-27 06:31:00,
2013-01-27 00:36:00,11.3,8.6,30.04,ENE,64,0.0,0.0,89,0.00,,,0.00,VWS V14.01,2013-01-27 06:36:00,
2013-01-27 00:41:00,11.2,8.5,30.04,ENE,65,0.0,0.0,89,0.00,,,0.00,VWS V14.01,2013-01-27 06:41:00,
2013-01-27 00:45:00,11.3,8.6,30.04,ENE,65,0.0,0.0,89,0.00,,,0.00,VWS V14.01,2013-01-27 06:45:00,
2013-01-27 00:46:00,11.3,8.6,30.05,ENE,65,0.0,3.0,89,0.00,,,0.00,VWS V14.01,2013-01-27 06:46:00,
2013-01-27 00:51:00,11.2,8.5,30.04,ENE,64,0.0,3.0,89,0.00,,,0.00,VWS V14.01,2013-01-27 06:51:00,
2013-01-27 00:56:00,11.1,8.4,30.04,ENE,64,1.0,2.0,89,0.00,,,0.00,VWS V14.01,2013-01-27 06:56:00,
2013-01-27 01:00:00,11.2,8.5,30.04,ENE,65,2.0,3.0,89,0.00,,,0.00,VWS V14.01,2013-01-27 07:00:00,
2013-01-27 01:01:00,10.9,8.2,30.04,ENE,65,3.0,3.0,89,0.00,,,0.00,VWS V14.01,2013-01-27 07:01:00,
2013-01-27 01:06:00,10.7,8.0,30.04,ENE,65,2.0,5.0,89,0.00,,,0.00,VWS V14.01,2013-01-27 07:06:00,
2013-01-27 01:13:00,10.5,7.8,30.04,ENE,64,3.0,5.0,89,0.00,,,0.00,VWS V14.01,2013-01-27 07:13:00,
2013-01-27 01:15:00,10.6,7.9,30.04,ENE,64,1.0,5.0,89,0.00,,,0.00,VWS V14.01,2013-01-27 07:15:00,
2013-01-27 01:18:00,10.3,7.6,30.04,ENE,64,3.0,5.0,89,0.00,,,0.00,VWS V14.01,2013-01-27 07:18:00,
2013-01-27 01:23:00,10.0,7.3,30.03,ENE,64,3.0,5.0,89,0.00,,,0.00,VWS V14.01,2013-01-27 07:23:00,
2013-01-27 01:28:00,9.8,7.1,30.03,ENE,64,4.0,5.0,89,0.00,,,0.00,VWS V14.01,2013-01-27 07:28:00,
2013-01-27 01:30:00,10.0,7.3,30.03,ENE,64,3.0,5.0,89,0.00,,,0.00,VWS V14.01,2013-01-27 07:30:00,
2013-01-27 01:33:00,9.6,6.9,30.04,ENE,64,5.0,7.0,89,0.00,,,0.00,VWS V14.01,2013-01-27 07:33:00,
2013-01-27 01:38:00,9.2,6.6,30.03,ENE,61,5.0,8.0,89,0.00,,,0.00,VWS V14.01,2013-01-27 07:38:00,
2013-01-27 01:43:00,9.0,6.3,30.03,ENE,61,4.0,5.0,89,0.00,,,0.00,VWS V14.01,2013-01-27 07:43:00,
2013-01-27 01:45:00,9.2,6.6,30.03,ENE,61,4.0,8.0,89,0.00,,,0.00,VWS V14.01,2013-01-27 07:45:00,
2013-01-27 01:48:00,8.9,6.2,30.03,ENE,61,3.0,5.0,89,0.00,,,0.00,VWS V14.01,2013-01-27 07:48:00,
2013-01-27 01:53:00,8.7,6.1,30.03,ENE,59,7.0,7.0,89,0.00,,,0.00,VWS V14.01,2013-01-27 07:53:00,
2013-01-27 01:58:00,8.7,6.1,30.03,ENE,59,4.0,5.0,89,0.00,,,0.00,VWS V14.01,2013-01-27 07:58:00,
2013-01-27 02:00:00,8.7,6.1,30.03,ENE,59,3.0,7.0,89,0.00,,,0.00,VWS V14.01,2013-01-27 08:00:00,
2013-01-27 02:03:00,8.7,6.1,30.03,ENE,59,2.0,5.0,89,0.00,,,0.00,VWS V14.01,2013-01-27 08:03:00,
2013-01-27 02:08:00,8.5,5.9,30.02,ENE,59,2.0,5.0,89,0.00,,,0.00,VWS V14.01,2013-01-27 08:08:00,
2013-01-27 02:13:00,8.5,5.9,30.02,ENE,59,3.0,3.0,89,0.00,,,0.00,VWS V14.01,2013-01-27 08:13:00,
2013-01-27 02:15:00,8.5,5.9,30.02,ENE,59,2.0,5.0,89,0.00,,,0.00,VWS V14.01,2013-01-27 08:15:00,
2013-01-27 02:18:00,8.5,5.9,30.02,ENE,59,0.0,3.0,89,0.00,,,0.00,VWS V14.01,2013-01-27 08:18:00,
2013-01-27 02:23:00,8.5,6.1,30.02,ENE,59,0.0,3.0,90,0.00,,,0.00,VWS V14.01,2013-01-27 08:23:00,
2013-01-27 02:28:00,8.5,5.9,30.02,ENE,59,0.0,0.0,89,0.00,,,0.00,VWS V14.01,2013-01-27 08:28:00,
2013-01-27 02:30:00,8.5,5.9,30.02,ENE,59,0.0,3.0,89,0.00,,,0.00,VWS V14.01,2013-01-27 08:30:00,
2013-01-27 02:33:00,8.5,6.1,30.01,ENE,59,0.0,0.0,90,0.00,,,0.00,VWS V14.01,2013-01-27 08:33:00,
2013-01-27 02:38:00,8.5,6.1,30.01,ENE,59,0.0,0.0,90,0.00,,,0.00,VWS V14.01,2013-01-27 08:38:00,
2013-01-27 02:43:00,8.5,6.1,30.01,ENE,59,0.0,0.0,90,0.00,,,0.00,VWS V14.01,2013-01-27 08:43:00,
2013-01-27 02:45:00,8.5,6.1,30.01,ENE,59,0.0,0.0,90,0.00,,,0.00,VWS V14.01,2013-01-27 08:45:00,
2013-01-27 02:48:00,8.6,6.2,30.01,ENE,59,0.0,0.0,90,0.00,,,0.00,VWS V14.01,2013-01-27 08:48:00,
2013-01-27 02:53:00,8.5,5.9,30.01,ENE,59,3.0,4.0,89,0.00,,,0.00,VWS V14.01,2013-01-27 08:53:00,
2013-01-27 02:58:00,8.4,5.8,30.01,ENE,59,0.0,2.0,89,0.00,,,0.00,VWS V14.01,2013-01-27 08:58:00,
2013-01-27 03:00:00,8.5,5.9,30.01,ENE,59,1.0,4.0,89,0.00,,,0.00,VWS V14.01,2013-01-27 09:00:00,
2013-01-27 03:03:00,8.2,5.6,30.01,ENE,59,0.0,2.0,89,0.00,,,0.00,VWS V14.01,2013-01-27 09:03:00,
2013-01-27 03:08:00,8.2,5.6,30.01,ENE,59,0.0,2.0,89,0.00,,,0.00,VWS V14.01,2013-01-27 09:08:00,
2013-01-27 03:13:00,8.2,5.6,30.01,ENE,59,0.0,0.0,89,0.00,,,0.00,VWS V14.01,2013-01-27 09:13:00,
2013-01-27 03:15:00,8.2,5.6,30.01,ENE,59,0.0,2.0,89,0.00,,,0.00,VWS V14.01,2013-01-27 09:15:00,
2013-01-27 03:18:00,8.3,5.9,30.00,ENE,59,0.0,0.0,90,0.00,,,0.00,VWS V14.01,2013-01-27 09:18:00,
2013-01-27 03:23:00,8.5,6.1,30.00,ENE,59,3.0,4.0,90,0.00,,,0.00,VWS V14.01,2013-01-27 09:23:00,
2013-01-27 03:28:00,8.7,6.3,30.00,ENE,59,0.0,2.0,90,0.00,,,0.00,VWS V14.01,2013-01-27 09:28:00,
2013-01-27 03:30:00,8.6,6.2,30.00,ENE,59,2.0,4.0,90,0.00,,,0.00,VWS V14.01,2013-01-27 09:30:00,
2013-01-27 03:33:00,8.6,6.0,30.00,ENE,59,0.0,2.0,89,0.00,,,0.00,VWS V14.01,2013-01-27 09:33:00,
2013-01-27 03:38:00,8.6,6.0,30.00,ENE,59,0.0,2.0,89,0.00,,,0.00,VWS V14.01,2013-01-27 09:38:00,
2013-01-27 03:43:00,8.6,6.0,30.00,ENE,59,0.0,0.0,89,0.00,,,0.00,VWS V14.01,2013-01-27 09:43:00,
2013-01-27 03:45:00,8.6,5.9,30.00,ENE,59,0.0,2.0,89,0.00,,,0.00,VWS V14.01,2013-01-27 09:45:00,
2013-01-27 03:48:00,8.6,6.0,30.00,ENE,59,0.0,0.0,89,0.00,,,0.00,VWS V14.01,2013-01-27 09:48:00,
2013-01-27 03:53:00,8.6,6.0,30.00,ENE,59,0.0,0.0,89,0.00,,,0.00,VWS V14.01,2013-01-27 09:53:00,
2013-01-27 03:58:00,8.5,5.9,30.00,ENE,59,0.0,1.0,89,0.00,,,0.00,VWS V14.01,2013-01-27 09:58:00,
2013-01-27 04:00:00,8.6,5.9,30.00,ENE,59,1.0,2.0,89,0.00,,,0.00,VWS V14.01,2013-01-27 10:00:00,
2013-01-27 04:03:00,8.5,5.9,29.99,ENE,59,1.0,2.0,89,0.00,,,0.00,VWS V14.01,2013-01-27 10:03:00,
2013-01-27 04:08:00,8.5,5.9,29.99,ENE,59,0.0,2.0,89,0.00,,,0.00,VWS V14.01,2013-01-27 10:08:00,
2013-01-27 04:13:00,8.5,5.9,29.99,ENE,59,0.0,0.0,89,0.00,,,0.00,VWS V14.01,2013-01-27 10:13:00,
2013-01-27 04:15:00,8.5,5.9,29.99,ENE,59,0.0,2.0,89,0.00,,,0.00,VWS V14.01,2013-01-27 10:15:00,
2013-01-27 04:18:00,8.5,5.9,29.99,ENE,59,0.0,0.0,89,0.00,,,0.00,VWS V14.01,2013-01-27 10:18:00,
2013-01-27 04:23:00,8.5,5.9,29.98,ENE,59,0.0,0.0,89,0.00,,,0.00,VWS V14.01,2013-01-27 10:23:00,
2013-01-27 04:28:00,8.6,6.0,29.98,ENE,59,0.0,0.0,89,0.00,,,0.00,VWS V14.01,2013-01-27 10:28:00,
2013-01-27 04:30:00,8.5,5.9,29.98,ENE,59,0.0,0.0,89,0.00,,,0.00,VWS V14.01,2013-01-27 10:30:00,
2013-01-27 04:33:00,8.7,6.1,29.98,ENE,59,0.0,0.0,89,0.00,,,0.00,VWS V14.01,2013-01-27 10:33:00,
2013-01-27 04:38:00,8.9,6.2,29.98,ENE,59,0.0,0.0,89,0.00,,,0.00,VWS V14.01,2013-01-27 10:38:00,
2013-01-27 04:42:00,8.9,6.2,29.98,ENE,59,0.0,0.0,89,0.00,,,0.00,VWS V14.01,2013-01-27 10:42:00,
2013-01-27 04:45:00,8.9,6.2,29.98,ENE,59,0.0,0.0,89,0.00,,,0.00,VWS V14.01,2013-01-27 10:45:00,
2013-01-27 04:47:00,8.8,6.2,29.98,ENE,59,0.0,0.0,89,0.00,,,0.00,VWS V14.01,2013-01-27 10:47:00,
2013-01-27 04:52:00,8.7,6.1,29.97,ENE,59,0.0,0.0,89,0.00,,,0.00,VWS V14.01,2013-01-27 10:52:00,
2013-01-27 04:57:00,8.5,5.9,29.97,ENE,59,0.0,0.0,89,0.00,,,0.00,VWS V14.01,2013-01-27 10:57:00,
2013-01-27 05:00:00,8.6,5.9,29.97,ENE,59,0.0,0.0,89,0.00,,,0.00,VWS V14.01,2013-01-27 11:00:00,
2013-01-27 05:02:00,8.5,5.9,29.97,ENE,59,0.0,0.0,89,0.00,,,0.00,VWS V14.01,2013-01-27 11:02:00,
2013-01-27 05:07:00,8.5,5.9,29.97,ENE,59,0.0,0.0,89,0.00,,,0.00,VWS V14.01,2013-01-27 11:07:00,
2013-01-27 05:12:00,8.4,5.8,29.97,ENE,59,0.0,0.0,89,0.00,,,0.00,VWS V14.01,2013-01-27 11:12:00,
2013-01-27 05:15:00,8.5,5.9,29.97,ENE,59,0.0,0.0,89,0.00,,,0.00,VWS V14.01,2013-01-27 11:15:00,
2013-01-27 05:17:00,8.3,5.7,29.96,ENE,59,0.0,0.0,89,0.00,,,0.00,VWS V14.01,2013-01-27 11:17:00,
2013-01-27 05:22:00,8.3,5.7,29.96,ENE,59,0.0,0.0,89,0.00,,,0.00,VWS V14.01,2013-01-27 11:22:00,
2013-01-27 05:27:00,8.2,5.6,29.96,ENE,59,0.0,0.0,89,0.00,,,0.00,VWS V14.01,2013-01-27 11:27:00,
2013-01-27 05:30:00,8.3,5.7,29.96,ENE,59,0.0,0.0,89,0.00,,,0.00,VWS V14.01,2013-01-27 11:30:00,
2013-01-27 05:32:00,8.2,5.6,29.96,ENE,59,0.0,0.0,89,0.00,,,0.00,VWS V14.01,2013-01-27 11:32:00,
2013-01-27 05:37:00,8.3,5.7,29.96,ENE,59,0.0,0.0,89,0.00,,,0.00,VWS V14.01,2013-01-27 11:37:00,
2013-01-27 05:42:00,8.2,5.6,29.96,ENE,59,0.0,0.0,89,0.00,,,0.00,VWS V14.01,2013-01-27 11:42:00,
2013-01-27 05:45:00,8.3,5.7,29.96,ENE,59,0.0,0.0,89,0.00,,,0.00,VWS V14.01,2013-01-27 11:45:00,
2013-01-27 05:47:00,8.1,5.5,29.95,ENE,59,0.0,0.0,89,0.00,,,0.00,VWS V14.01,2013-01-27 11:47:00,
2013-01-27 05:52:00,7.9,5.3,29.95,ENE,59,0.0,0.0,89,0.00,,,0.00,VWS V14.01,2013-01-27 11:52:00,
2013-01-27 05:57:00,7.8,5.2,29.95,ENE,59,0.0,0.0,89,0.00,,,0.00,VWS V14.01,2013-01-27 11:57:00,
2013-01-27 06:00:00,7.9,5.3,29.95,ENE,59,0.0,0.0,89,0.00,,,0.00,VWS V14.01,2013-01-27 12:00:00,
2013-01-27 06:02:00,7.8,5.2,29.96,ENE,59,0.0,0.0,89,0.00,,,0.00,VWS V14.01,2013-01-27 12:02:00,
2013-01-27 06:07:00,7.7,5.1,29.96,ENE,59,0.0,0.0,89,0.00,,,0.00,VWS V14.01,2013-01-27 12:07:00,
2013-01-27 06:12:00,7.7,5.1,29.96,ENE,59,0.0,0.0,89,0.00,,,0.00,VWS V14.01,2013-01-27 12:12:00,
2013-01-27 06:15:00,7.7,5.1,29.96,ENE,59,0.0,0.0,89,0.00,,,0.00,VWS V14.01,2013-01-27 12:15:00,
2013-01-27 06:17:00,7.6,5.0,29.97,ENE,59,0.0,0.0,89,0.00,,,0.00,VWS V14.01,2013-01-27 12:17:00,
2013-01-27 06:22:00,7.2,4.3,29.97,ENE,59,0.0,3.0,88,0.00,,,0.00,VWS V14.01,2013-01-27 12:22:00,
2013-01-27 06:27:00,6.7,3.8,29.97,ENE,59,2.0,3.0,88,0.00,,,0.00,VWS V14.01,2013-01-27 12:27:00,
2013-01-27 06:30:00,7.1,4.2,29.97,ENE,59,1.0,3.0,88,0.00,,,0.00,VWS V14.01,2013-01-27 12:30:00,
2013-01-27 06:32:00,6.3,3.4,29.97,ENE,59,2.0,3.0,88,0.00,,,0.00,VWS V14.01,2013-01-27 12:32:00,
2013-01-27 06:37:00,6.1,3.2,29.97,ENE,59,2.0,3.0,88,0.00,,,0.00,VWS V14.01,2013-01-27 12:37:00,
2013-01-27 06:42:00,6.0,3.1,29.97,ENE,59,0.0,3.0,88,0.00,,,0.00,VWS V14.01,2013-01-27 12:42:00,
2013-01-27 06:45:00,6.1,3.2,29.97,ENE,59,2.0,3.0,88,0.00,,,0.00,VWS V14.01,2013-01-27 12:45:00,
2013-01-27 06:47:00,6.0,3.1,29.97,ENE,59,3.0,3.0,88,0.00,,,0.00,VWS V14.01,2013-01-27 12:47:00,
2013-01-27 06:52:00,6.0,3.1,29.97,ENE,59,0.0,3.0,88,0.00,,,0.00,VWS V14.01,2013-01-27 12:52:00,
2013-01-27 06:57:00,6.1,3.2,29.97,ENE,59,0.0,2.0,88,0.00,,,0.00,VWS V14.01,2013-01-27 12:57:00,
2013-01-27 07:00:00,6.0,3.1,29.97,ENE,59,2.0,3.0,88,0.00,,,0.00,VWS V14.01,2013-01-27 13:00:00,
2013-01-27 07:02:00,6.2,3.3,29.97,ENE,59,0.0,2.0,88,0.00,,,0.00,VWS V14.01,2013-01-27 13:02:00,
2013-01-27 07:07:00,6.1,3.2,29.97,ENE,59,0.0,2.0,88,0.00,,,0.00,VWS V14.01,2013-01-27 13:07:00,
2013-01-27 07:12:00,6.1,3.2,29.96,ENE,59,0.0,0.0,88,0.00,,,0.00,VWS V14.01,2013-01-27 13:12:00,
2013-01-27 07:15:00,6.0,3.1,29.96,ENE,59,0.0,2.0,88,0.00,,,0.00,VWS V14.01,2013-01-27 13:15:00,
2013-01-27 07:17:00,6.2,3.3,29.96,ENE,59,0.0,0.0,88,0.00,,,0.00,VWS V14.01,2013-01-27 13:17:00,
2013-01-27 07:22:00,6.3,3.7,29.97,ENE,59,0.0,0.0,89,0.00,,,0.00,VWS V14.01,2013-01-27 13:22:00,
2013-01-27 07:27:00,6.4,3.8,29.97,ENE,59,0.0,0.0,89,0.00,,,0.00,VWS V14.01,2013-01-27 13:27:00,
2013-01-27 07:30:00,6.3,3.7,29.97,ENE,59,0.0,0.0,89,0.00,,,0.00,VWS V14.01,2013-01-27 13:30:00,
2013-01-27 07:32:00,6.2,3.3,29.97,ENE,59,2.0,3.0,88,0.00,,,0.00,VWS V14.01,2013-01-27 13:32:00,
2013-01-27 07:37:00,5.9,3.0,29.97,ENE,59,2.0,3.0,88,0.00,,,0.00,VWS V14.01,2013-01-27 13:37:00,
2013-01-27 07:42:00,5.7,2.8,29.98,ENE,59,2.0,4.0,88,0.00,,,0.00,VWS V14.01,2013-01-27 13:42:00,
2013-01-27 07:45:00,5.8,3.0,29.97,ENE,59,3.0,3.0,88,0.00,,,0.00,VWS V14.01,2013-01-27 13:45:00,
2013-01-27 07:47:00,5.4,2.5,29.98,ENE,59,1.0,4.0,88,0.00,,,0.00,VWS V14.01,2013-01-27 13:47:00,
2013-01-27 07:52:00,5.3,2.5,29.98,ENE,59,5.0,7.0,88,0.00,,,0.00,VWS V14.01,2013-01-27 13:52:00,
2013-01-27 07:57:00,5.1,2.3,29.98,ENE,59,2.0,4.0,88,0.00,,,0.00,VWS V14.01,2013-01-27 13:57:00,
2013-01-27 08:00:00,5.2,2.4,29.98,ENE,59,3.0,7.0,88,0.00,,,0.00,VWS V14.01,2013-01-27 14:00:00,
2013-01-27 08:02:00,5.0,2.2,29.98,ENE,59,3.0,5.0,88,0.00,,,0.00,VWS V14.01,2013-01-27 14:02:00,
2013-01-27 08:07:00,5.0,2.2,29.99,ENE,59,4.0,7.0,88,0.00,,,0.00,VWS V14.01,2013-01-27 14:07:00,
2013-01-27 08:12:00,4.9,2.1,29.98,ENE,59,3.0,4.0,88,0.00,,,0.00,VWS V14.01,2013-01-27 14:12:00,
2013-01-27 08:15:00,5.0,2.2,29.98,ENE,59,4.0,7.0,88,0.00,,,0.00,VWS V14.01,2013-01-27 14:15:00,
2013-01-27 08:17:00,4.7,1.9,29.98,ENE,59,3.0,5.0,88,0.00,,,0.00,VWS V14.01,2013-01-27 14:17:00,
2013-01-27 08:22:00,4.7,1.9,29.98,ENE,59,2.0,5.0,88,0.00,,,0.00,VWS V14.01,2013-01-27 14:22:00,
2013-01-27 08:27:00,4.6,1.8,29.98,ENE,59,0.0,1.0,88,0.00,,,0.00,VWS V14.01,2013-01-27 14:27:00,
2013-01-27 08:30:00,4.6,1.8,29.98,ENE,59,1.0,5.0,88,0.00,,,0.00,VWS V14.01,2013-01-27 14:30:00,
2013-01-27 08:32:00,4.7,1.9,29.98,ENE,59,0.0,1.0,88,0.00,,,0.00,VWS V14.01,2013-01-27 14:32:00,
2013-01-27 08:37:00,4.7,1.9,29.98,ENE,59,0.0,1.0,88,0.00,,,0.00,VWS V14.01,2013-01-27 14:37:00,
2013-01-27 08:42:00,4.7,1.9,29.98,ENE,59,0.0,0.0,88,0.00,,,0.00,VWS V14.01,2013-01-27 14:42:00,
2013-01-27 08:45:00,4.7,1.9,29.98,ENE,59,0.0,1.0,88,0.00,,,0.00,VWS V14.01,2013-01-27 14:45:00,
2013-01-27 08:47:00,4.9,2.1,29.98,ENE,59,0.0,0.0,88,0.00,,,0.00,VWS V14.01,2013-01-27 14:47:00,
2013-01-27 08:52:00,5.1,2.3,29.98,ENE,59,0.0,0.0,88,0.00,,,0.00,VWS V14.01,2013-01-27 14:52:00,
2013-01-27 08:57:00,5.4,2.5,29.98,ENE,59,0.0,0.0,88,0.00,,,0.00,VWS V14.01,2013-01-27 14:57:00,
2013-01-27 09:00:00,5.3,2.5,29.98,ENE,59,0.0,0.0,88,0.00,,,0.00,VWS V14.01,2013-01-27 15:00:00,
2013-01-27 09:02:00,5.8,3.2,29.98,ENE,59,0.0,0.0,89,0.00,,,0.00,VWS V14.01,2013-01-27 15:02:00,
2013-01-27 09:07:00,6.1,3.5,29.98,ENE,59,2.0,3.0,89,0.00,,,0.00,VWS V14.01,2013-01-27 15:07:00,
2013-01-27 09:12:00,6.4,3.5,29.98,ENE,59,1.0,3.0,88,0.00,,,0.00,VWS V14.01,2013-01-27 15:12:00,
2013-01-27 09:15:00,6.2,3.6,29.98,ENE,59,3.0,3.0,89,0.00,,,0.00,VWS V14.01,2013-01-27 15:15:00,
2013-01-27 09:17:00,6.5,3.9,29.97,ENE,59,0.0,3.0,89,0.00,,,0.00,VWS V14.01,2013-01-27 15:17:00,
2013-01-27 09:22:00,6.8,3.9,29.97,ENE,59,0.0,3.0,88,0.00,,,0.00,VWS V14.01,2013-01-27 15:22:00,
2013-01-27 09:27:00,7.1,4.5,29.97,ENE,59,0.0,0.0,89,0.00,,,0.00,VWS V14.01,2013-01-27 15:27:00,
2013-01-27 09:30:00,6.9,4.0,29.97,ENE,59,0.0,3.0,88,0.00,,,0.00,VWS V14.01,2013-01-27 15:30:00,
2013-01-27 09:32:00,7.6,4.7,29.98,ENE,59,0.0,0.0,88,0.00,,,0.00,VWS V14.01,2013-01-27 15:32:00,
2013-01-27 09:37:00,7.7,4.8,29.98,ENE,59,4.0,4.0,88,0.00,,,0.00,VWS V14.01,2013-01-27 15:37:00,
2013-01-27 09:42:00,7.4,4.3,29.98,ENE,59,2.0,7.0,87,0.00,,,0.00,VWS V14.01,2013-01-27 15:42:00,
2013-01-27 09:45:00,7.6,4.7,29.98,ENE,59,4.0,5.0,88,0.00,,,0.00,VWS V14.01,2013-01-27 15:45:00,
2013-01-27 09:47:00,7.2,4.1,29.98,ENE,59,5.0,7.0,87,0.00,,,0.00,VWS V14.01,2013-01-27 15:47:00,
2013-01-27 09:52:00,7.1,4.0,29.98,NE,56,3.0,7.0,87,0.00,,,0.00,VWS V14.01,2013-01-27 15:52:00,
2013-01-27 09:57:00,7.2,4.3,29.98,NE,56,5.0,5.0,88,0.00,,,0.00,VWS V14.01,2013-01-27 15:57:00,
2013-01-27 10:00:00,7.2,4.3,29.98,NE,56,4.0,7.0,88,0.00,,,0.00,VWS V14.01,2013-01-27 16:00:00,
2013-01-27 10:02:00,7.3,4.4,29.98,NE,56,5.0,6.0,88,0.00,,,0.00,VWS V14.01,2013-01-27 16:02:00,
2013-01-27 10:07:00,7.3,4.4,29.98,NE,56,3.0,6.0,88,0.00,,,0.00,VWS V14.01,2013-01-27 16:07:00,
2013-01-27 10:12:00,7.4,4.8,29.98,NE,56,1.0,4.0,89,0.00,,,0.00,VWS V14.01,2013-01-27 16:12:00,
2013-01-27 10:15:00,7.3,4.4,29.98,NE,56,3.0,6.0,88,0.00,,,0.00,VWS V14.01,2013-01-27 16:15:00,
2013-01-27 10:17:00,7.7,5.1,29.98,NE,56,3.0,4.0,89,0.00,,,0.00,VWS V14.01,2013-01-27 16:17:00,
2013-01-27 10:22:00,7.8,5.2,29.98,NE,56,0.0,4.0,89,0.00,,,0.00,VWS V14.01,2013-01-27 16:22:00,
2013-01-27 10:27:00,8.0,5.4,29.98,NE,56,1.0,3.0,89,0.00,,,0.00,VWS V14.01,2013-01-27 16:27:00,
2013-01-27 10:30:00,7.9,5.3,29.98,NE,56,1.0,4.0,89,0.00,,,0.00,VWS V14.01,2013-01-27 16:30:00,
2013-01-27 10:32:00,8.2,5.6,29.98,NE,56,1.0,4.0,89,0.00,,,0.00,VWS V14.01,2013-01-27 16:32:00,
2013-01-27 10:37:00,8.1,5.5,29.98,NE,56,4.0,4.0,89,0.00,,,0.00,VWS V14.01,2013-01-27 16:37:00,
2013-01-27 10:42:00,8.2,5.6,29.98,NE,56,4.0,4.0,89,0.00,,,0.00,VWS V14.01,2013-01-27 16:42:00,
2013-01-27 10:45:00,8.1,5.5,29.98,NE,56,2.0,4.0,89,0.00,,,0.00,VWS V14.01,2013-01-27 16:45:00,
2013-01-27 10:47:00,8.3,5.7,29.99,NE,56,3.0,5.0,89,0.00,,,0.00,VWS V14.01,2013-01-27 16:47:00,
2013-01-27 10:52:00,8.6,6.0,29.99,NE,56,3.0,5.0,89,0.00,,,0.00,VWS V14.01,2013-01-27 16:52:00,
2013-01-27 10:57:00,8.7,6.1,29.99,NE,56,2.0,5.0,89,0.00,,,0.00,VWS V14.01,2013-01-27 16:57:00,
2013-01-27 11:00:00,8.7,6.1,29.99,NE,56,2.0,5.0,89,0.00,,,0.00,VWS V14.01,2013-01-27 17:00:00,
2013-01-27 11:02:00,9.1,6.4,29.99,NE,56,2.0,5.0,89,0.00,,,0.00,VWS V14.01,2013-01-27 17:02:00,
2013-01-27 11:07:00,9.5,6.8,29.98,NE,56,0.0,5.0,89,0.00,,,0.00,VWS V14.01,2013-01-27 17:07:00,
2013-01-27 11:12:00,10.2,7.8,29.99,NE,56,4.0,4.0,90,0.00,,,0.00,VWS V14.01,2013-01-27 17:12:00,
2013-01-27 11:15:00,9.8,7.4,29.98,NE,56,0.0,5.0,90,0.00,,,0.00,VWS V14.01,2013-01-27 17:15:00,
2013-01-27 11:17:00,10.2,7.5,29.98,NE,56,0.0,4.0,89,0.00,,,0.00,VWS V14.01,2013-01-27 17:17:00,
2013-01-27 11:22:00,10.7,8.0,29.98,NE,56,0.0,4.0,89,0.00,,,0.00,VWS V14.01,2013-01-27 17:22:00,
2013-01-27 11:27:00,10.9,8.2,29.98,NE,56,0.0,3.0,89,0.00,,,0.00,VWS V14.01,2013-01-27 17:27:00,
2013-01-27 11:30:00,10.8,8.1,29.98,NE,56,2.0,4.0,89,0.00,,,0.00,VWS V14.01,2013-01-27 17:30:00,
2013-01-27 11:32:00,11.5,8.8,29.98,NE,56,0.0,3.0,89,0.00,,,0.00,VWS V14.01,2013-01-27 17:32:00,
2013-01-27 11:37:00,11.8,8.9,29.98,NE,55,1.0,3.0,88,0.00,,,0.00,VWS V14.01,2013-01-27 17:37:00,
2013-01-27 11:42:00,11.5,8.3,29.98,NE,56,2.0,3.0,87,0.00,,,0.00,VWS V14.01,2013-01-27 17:42:00,
2013-01-27 11:45:00,11.7,8.5,29.98,NE,56,0.0,3.0,87,0.00,,,0.00,VWS V14.01,2013-01-27 17:45:00,
2013-01-27 11:47:00,11.1,7.9,29.98,NE,56,2.0,3.0,87,0.00,,,0.00,VWS V14.01,2013-01-27 17:47:00,
2013-01-27 11:52:00,11.2,8.3,29.98,NE,55,3.0,5.0,88,0.00,,,0.00,VWS V14.01,2013-01-27 17:52:00,
2013-01-27 11:57:00,11.8,8.9,29.98,NE,56,2.0,4.0,88,0.00,,,0.00,VWS V14.01,2013-01-27 17:57:00,
2013-01-27 12:00:00,11.4,8.5,29.98,NE,55,3.0,5.0,88,0.00,,,0.00,VWS V14.01,2013-01-27 18:00:00,
2013-01-27 12:02:00,12.2,9.3,29.98,NE,56,2.0,6.0,88,0.00,,,0.00,VWS V14.01,2013-01-27 18:02:00,
2013-01-27 12:07:00,12.8,9.9,29.98,NE,55,4.0,6.0,88,0.00,,,0.00,VWS V14.01,2013-01-27 18:07:00,
2013-01-27 12:12:00,13.0,9.8,29.98,NE,41,6.0,6.0,87,0.00,,,0.00,VWS V14.01,2013-01-27 18:12:00,
2013-01-27 12:15:00,13.0,10.1,29.98,NE,55,1.0,6.0,88,0.00,,,0.00,VWS V14.01,2013-01-27 18:15:00,
2013-01-27 12:17:00,12.8,9.6,29.99,North,351,1.0,9.0,87,0.00,,,0.00,VWS V14.01,2013-01-27 18:17:00,
2013-01-27 12:22:00,13.2,10.0,29.98,North,351,3.0,9.0,87,0.00,,,0.00,VWS V14.01,2013-01-27 18:22:00,
2013-01-27 12:27:00,13.9,10.7,29.98,North,351,1.0,5.0,87,0.00,,,0.00,VWS V14.01,2013-01-27 18:27:00,
2013-01-27 12:30:00,13.5,10.3,29.98,North,351,2.0,9.0,87,0.00,,,0.00,VWS V14.01,2013-01-27 18:30:00,
2013-01-27 12:32:00,14.5,11.0,29.97,North,351,1.0,5.0,86,0.00,,,0.00,VWS V14.01,2013-01-27 18:32:00,
2013-01-27 12:37:00,15.0,11.2,29.97,North,351,2.0,5.0,85,0.00,,,0.00,VWS V14.01,2013-01-27 18:37:00,
2013-01-27 12:42:00,15.3,11.3,29.97,North,351,1.0,3.0,84,0.00,,,0.00,VWS V14.01,2013-01-27 18:42:00,
2013-01-27 12:45:00,15.2,11.4,29.97,North,351,3.0,5.0,85,0.00,,,0.00,VWS V14.01,2013-01-27 18:45:00,
2013-01-27 12:47:00,15.3,11.0,29.96,North,351,2.0,5.0,83,0.00,,,0.00,VWS V14.01,2013-01-27 18:47:00,
2013-01-27 12:52:00,15.0,10.4,29.96,North,351,3.0,5.0,82,0.00,,,0.00,VWS V14.01,2013-01-27 18:52:00,
2013-01-27 12:57:00,14.7,10.4,29.97,North,351,5.0,6.0,83,0.00,,,0.00,VWS V14.01,2013-01-27 18:57:00,
2013-01-27 13:00:00,14.8,10.5,29.96,North,351,2.0,5.0,83,0.00,,,0.00,VWS V14.01,2013-01-27 19:00:00,
2013-01-27 13:02:00,14.5,10.5,29.96,North,351,2.0,6.0,84,0.00,,,0.00,VWS V14.01,2013-01-27 19:02:00,
2013-01-27 13:07:00,14.9,11.1,29.95,North,351,1.0,6.0,85,0.00,,,0.00,VWS V14.01,2013-01-27 19:07:00,
2013-01-27 13:12:00,15.6,11.6,29.95,North,351,0.0,2.0,84,0.00,,,0.00,VWS V14.01,2013-01-27 19:12:00,
2013-01-27 13:15:00,15.2,11.2,29.95,North,351,0.0,6.0,84,0.00,,,0.00,VWS V14.01,2013-01-27 19:15:00,
2013-01-27 13:17:00,16.0,11.7,29.95,North,351,4.0,6.0,83,0.00,,,0.00,VWS V14.01,2013-01-27 19:17:00,
2013-01-27 13:22:00,15.8,11.2,29.95,North,351,3.0,6.0,82,0.00,,,0.00,VWS V14.01,2013-01-27 19:22:00,
2013-01-27 13:27:00,15.7,11.1,29.94,North,351,2.0,3.0,82,0.00,,,0.00,VWS V14.01,2013-01-27 19:27:00,
2013-01-27 13:30:00,15.7,11.1,29.94,North,351,0.0,6.0,82,0.00,,,0.00,VWS V14.01,2013-01-27 19:30:00,
2013-01-27 13:32:00,16.0,11.7,29.94,North,351,3.0,3.0,83,0.00,,,0.00,VWS V14.01,2013-01-27 19:32:00,
2013-01-27 13:37:00,16.0,11.4,29.94,North,351,0.0,4.0,82,0.00,,,0.00,VWS V14.01,2013-01-27 19:37:00,
2013-01-27 13:42:00,16.5,11.9,29.93,North,351,0.0,3.0,82,0.00,,,0.00,VWS V14.01,2013-01-27 19:42:00,
2013-01-27 13:45:00,16.3,12.0,29.94,North,351,0.0,4.0,83,0.00,,,0.00,VWS V14.01,2013-01-27 19:45:00,
2013-01-27 13:47:00,16.9,12.3,29.93,North,351,0.0,3.0,82,0.00,,,0.00,VWS V14.01,2013-01-27 19:47:00,
2013-01-27 13:52:00,17.2,12.3,29.93,North,351,2.0,4.0,81,0.00,,,0.00,VWS V14.01,2013-01-27 19:52:00,
2013-01-27 13:57:00,17.1,12.2,29.92,North,351,0.0,2.0,81,0.00,,,0.00,VWS V14.01,2013-01-27 19:57:00,
2013-01-27 14:00:00,17.2,12.3,29.92,North,351,2.0,4.0,81,0.00,,,0.00,VWS V14.01,2013-01-27 20:00:00,
2013-01-27 14:02:00,17.3,12.4,29.92,North,351,0.0,3.0,81,0.00,,,0.00,VWS V14.01,2013-01-27 20:02:00,
2013-01-27 14:07:00,18.0,13.1,29.92,North,351,2.0,4.0,81,0.00,,,0.00,VWS V14.01,2013-01-27 20:07:00,
2013-01-27 14:12:00,18.3,12.8,29.92,North,351,2.0,5.0,79,0.00,,,0.00,VWS V14.01,2013-01-27 20:12:00,
2013-01-27 14:15:00,18.3,13.4,29.92,North,351,3.0,5.0,81,0.00,,,0.00,VWS V14.01,2013-01-27 20:15:00,
2013-01-27 14:17:00,18.4,12.9,29.92,North,351,1.0,5.0,79,0.00,,,0.00,VWS V14.01,2013-01-27 20:17:00,
2013-01-27 14:22:00,18.7,13.2,29.91,North,351,1.0,5.0,79,0.00,,,0.00,VWS V14.01,2013-01-27 20:22:00,
2013-01-27 14:27:00,18.7,13.2,29.91,North,5,2.0,6.0,79,0.00,,,0.00,VWS V14.01,2013-01-27 20:27:00,
2013-01-27 14:30:00,18.7,13.2,29.91,North,360,3.0,6.0,79,0.00,,,0.00,VWS V14.01,2013-01-27 20:30:00,
2013-01-27 14:32:00,18.9,13.7,29.91,North,5,2.0,6.0,80,0.00,,,0.00,VWS V14.01,2013-01-27 20:32:00,
2013-01-27 14:37:00,19.0,13.5,29.91,North,5,1.0,6.0,79,0.00,,,0.00,VWS V14.01,2013-01-27 20:37:00,
2013-01-27 14:42:00,19.0,13.5,29.91,North,5,4.0,5.0,79,0.00,,,0.00,VWS V14.01,2013-01-27 20:42:00,
2013-01-27 14:45:00,19.0,13.5,29.91,North,5,3.0,6.0,79,0.00,,,0.00,VWS V14.01,2013-01-27 20:45:00,
2013-01-27 14:47:00,19.0,13.5,29.91,North,5,2.0,5.0,79,0.00,,,0.00,VWS V14.01,2013-01-27 20:47:00,
2013-01-27 14:52:00,19.3,14.1,29.92,North,5,0.0,5.0,80,0.00,,,0.00,VWS V14.01,2013-01-27 20:52:00,
2013-01-27 14:57:00,19.5,14.0,29.92,North,5,0.0,2.0,79,0.00,,,0.00,VWS V14.01,2013-01-27 20:57:00,
2013-01-27 15:00:00,19.4,13.9,29.92,North,5,1.0,5.0,79,0.00,,,0.00,VWS V14.01,2013-01-27 21:00:00,
2013-01-27 15:02:00,19.7,14.2,29.92,North,5,2.0,4.0,79,0.00,,,0.00,VWS V14.01,2013-01-27 21:02:00,
2013-01-27 15:07:00,19.7,13.9,29.92,North,5,0.0,4.0,78,0.00,,,0.00,VWS V14.01,2013-01-27 21:07:00,
2013-01-27 15:12:00,19.8,14.0,29.92,North,5,2.0,3.0,78,0.00,,,0.00,VWS V14.01,2013-01-27 21:12:00,
2013-01-27 15:17:00,19.6,13.8,29.92,North,5,1.0,3.0,78,0.00,,,0.00,VWS V14.01,2013-01-27 21:17:00,
2013-01-27 15:22:00,19.2,13.4,29.79,North,5,2.0,6.0,78,0.00,,,0.00,VWS V14.01,2013-01-27 21:22:00,
2013-01-27 15:27:00,19.1,13.6,29.80,North,5,4.0,6.0,79,0.00,,,0.00,VWS V14.01,2013-01-27 21:27:00,
2013-01-27 15:30:00,19.2,13.7,29.79,North,5,0.0,6.0,79,0.00,,,0.00,VWS V14.01,2013-01-27 21:30:00,
2013-01-27 15:32:00,18.8,13.3,29.80,North,5,3.0,6.0,79,0.00,,,0.00,VWS V14.01,2013-01-27 21:32:00,
2013-01-27 15:37:00,18.8,13.6,29.79,North,5,0.0,6.0,80,0.00,,,0.00,VWS V14.01,2013-01-27 21:37:00,
2013-01-27 15:42:00,19.0,13.8,29.79,North,5,1.0,3.0,80,0.00,,,0.00,VWS V14.01,2013-01-27 21:42:00,
2013-01-27 15:45:00,18.9,13.7,29.79,North,5,3.0,6.0,80,0.00,,,0.00,VWS V14.01,2013-01-27 21:45:00,
2013-01-27 15:47:00,19.3,13.8,29.80,North,5,0.0,3.0,79,0.00,,,0.00,VWS V14.01,2013-01-27 21:47:00,
2013-01-27 15:52:00,19.3,13.8,29.80,North,5,1.0,4.0,79,0.00,,,0.00,VWS V14.01,2013-01-27 21:52:00,
2013-01-27 15:57:00,19.1,13.6,29.80,North,5,2.0,6.0,79,0.00,,,0.00,VWS V14.01,2013-01-27 21:57:00,
2013-01-27 16:00:00,19.3,13.8,29.80,North,5,6.0,7.0,79,0.00,,,0.00,VWS V14.01,2013-01-27 22:00:00,
2013-01-27 16:02:00,19.1,13.6,29.80,North,5,5.0,6.0,79,0.00,,,0.00,VWS V14.01,2013-01-27 22:02:00,
2013-01-27 16:07:00,18.5,13.0,29.80,NW,315,5.0,10.0,79,0.00,,,0.00,VWS V14.01,2013-01-27 22:07:00,
2013-01-27 16:12:00,18.1,12.9,29.80,NW,315,2.0,3.0,80,0.00,,,0.00,VWS V14.01,2013-01-27 22:12:00,
2013-01-27 16:15:00,18.3,12.8,29.80,NW,315,1.0,10.0,79,0.00,,,0.00,VWS V14.01,2013-01-27 22:15:00,
2013-01-27 16:17:00,17.9,12.7,29.81,NW,315,0.0,3.0,80,0.00,,,0.00,VWS V14.01,2013-01-27 22:17:00,
2013-01-27 16:22:00,17.6,12.4,29.81,NW,315,0.0,4.0,80,0.00,,,0.00,VWS V14.01,2013-01-27 22:22:00,
2013-01-27 16:27:00,17.2,12.0,29.80,NW,315,1.0,2.0,80,0.00,,,0.00,VWS V14.01,2013-01-27 22:27:00,
2013-01-27 16:30:00,17.4,12.2,29.81,NW,315,2.0,4.0,80,0.00,,,0.00,VWS V14.01,2013-01-27 22:30:00,
2013-01-27 16:32:00,17.0,12.1,29.80,NW,315,0.0,2.0,81,0.00,,,0.00,VWS V14.01,2013-01-27 22:32:00,
2013-01-27 16:37:00,17.0,12.1,29.80,NW,315,0.0,2.0,81,0.00,,,0.00,VWS V14.01,2013-01-27 22:37:00,
2013-01-27 16:42:00,16.8,12.2,29.81,NW,315,2.0,3.0,82,0.00,,,0.00,VWS V14.01,2013-01-27 22:42:00,
2013-01-27 16:45:00,16.9,12.0,29.80,NW,315,0.0,5.0,81,0.00,,,0.00,VWS V14.01,2013-01-27 22:45:00,
2013-01-27 16:47:00,16.6,11.7,29.81,NW,315,0.0,5.0,81,0.00,,,0.00,VWS V14.01,2013-01-27 22:47:00,
2013-01-27 16:52:00,16.2,11.6,29.82,NW,315,3.0,5.0,82,0.00,,,0.00,VWS V14.01,2013-01-27 22:52:00,
2013-01-27 16:57:00,16.1,11.5,29.82,NW,315,2.0,3.0,82,0.00,,,0.00,VWS V14.01,2013-01-27 22:57:00,
2013-01-27 17:00:00,16.2,11.6,29.82,NW,315,0.0,5.0,82,0.00,,,0.00,VWS V14.01,2013-01-27 23:00:00,
2013-01-27 17:02:00,15.8,11.2,29.82,NW,315,0.0,3.0,82,0.00,,,0.00,VWS V14.01,2013-01-27 23:02:00,
2013-01-27 17:07:00,15.5,10.9,29.82,NW,315,1.0,3.0,82,0.00,,,0.00,VWS V14.01,2013-01-27 23:07:00,
2013-01-27 17:12:00,15.3,10.7,29.82,NW,315,0.0,1.0,82,0.00,,,0.00,VWS V14.01,2013-01-27 23:12:00,
2013-01-27 17:15:00,15.4,10.8,29.82,NW,315,1.0,3.0,82,0.00,,,0.00,VWS V14.01,2013-01-27 23:15:00,
2013-01-27 17:17:00,15.2,10.9,29.82,NW,315,0.0,1.0,83,0.00,,,0.00,VWS V14.01,2013-01-27 23:17:00,
2013-01-27 17:22:00,15.0,10.7,29.82,NW,315,0.0,1.0,83,0.00,,,0.00,VWS V14.01,2013-01-27 23:22:00,
2013-01-27 17:27:00,14.9,10.6,29.82,NW,315,0.0,0.0,83,0.00,,,0.00,VWS V14.01,2013-01-27 23:27:00,
2013-01-27 17:30:00,15.0,10.7,29.81,NW,315,0.0,1.0,83,0.00,,,0.00,VWS V14.01,2013-01-27 23:30:00,
2013-01-27 17:32:00,14.8,10.5,29.82,NW,315,0.0,0.0,83,0.00,,,0.00,VWS V14.01,2013-01-27 23:32:00,
2013-01-27 17:37:00,14.7,10.4,29.82,NW,315,0.0,0.0,83,0.00,,,0.00,VWS V14.01,2013-01-27 23:37:00,
2013-01-27 17:42:00,14.6,10.3,29.82,NW,315,0.0,0.0,83,0.00,,,0.00,VWS V14.01,2013-01-27 23:42:00,
2013-01-27 17:45:00,14.7,10.4,29.82,NW,315,0.0,0.0,83,0.00,,,0.00,VWS V14.01,2013-01-27 23:45:00,
2013-01-27 17:47:00,14.5,10.5,29.82,NW,315,0.0,0.0,84,0.00,,,0.00,VWS V14.01,2013-01-27 23:47:00,
2013-01-27 17:52:00,14.4,10.4,29.82,NW,315,0.0,0.0,84,0.00,,,0.00,VWS V14.01,2013-01-27 23:52:00,
2013-01-27 17:57:00,14.3,10.3,29.82,NW,315,0.0,0.0,84,0.00,,,0.00,VWS V14.01,2013-01-27 23:57:00,
2013-01-27 18:00:00,14.4,10.4,29.82,NW,315,0.0,0.0,84,0.00,,,0.00,VWS V14.01,2013-01-28 00:00:00,
2013-01-27 18:02:00,14.3,10.3,29.82,NW,315,0.0,0.0,84,0.00,,,0.00,VWS V14.01,2013-01-28 00:02:00,
2013-01-27 18:07:00,14.3,10.6,29.82,NW,315,0.0,0.0,85,0.00,,,0.00,VWS V14.01,2013-01-28 00:07:00,
2013-01-27 18:12:00,14.4,10.6,29.82,NW,315,2.0,3.0,85,0.00,,,0.00,VWS V14.01,2013-01-28 00:12:00,
2013-01-27 18:15:00,14.3,10.6,29.82,NW,315,2.0,2.0,85,0.00,,,0.00,VWS V14.01,2013-01-28 00:15:00,
2013-01-27 18:17:00,14.3,10.6,29.83,NW,315,2.0,4.0,85,0.00,,,0.00,VWS V14.01,2013-01-28 00:17:00,
2013-01-27 18:22:00,14.2,10.4,29.83,NW,315,2.0,4.0,85,0.00,,,0.00,VWS V14.01,2013-01-28 00:22:00,
2013-01-27 18:27:00,14.1,10.4,29.83,NW,315,0.0,0.0,85,0.00,,,0.00,VWS V14.01,2013-01-28 00:27:00,
2013-01-27 18:30:00,14.1,10.4,29.83,NW,315,0.0,4.0,85,0.00,,,0.00,VWS V14.01,2013-01-28 00:30:00,
2013-01-27 18:32:00,14.0,10.2,29.82,NW,315,0.0,0.0,85,0.00,,,0.00,VWS V14.01,2013-01-28 00:32:00,
2013-01-27 18:37:00,14.1,10.6,29.82,NW,315,0.0,0.0,86,0.00,,,0.00,VWS V14.01,2013-01-28 00:37:00,
2013-01-27 18:42:00,14.1,10.6,29.82,NW,315,0.0,0.0,86,0.00,,,0.00,VWS V14.01,2013-01-28 00:42:00,
2013-01-27 18:45:00,14.1,10.6,29.82,NW,315,0.0,0.0,86,0.00,,,0.00,VWS V14.01,2013-01-28 00:45:00,
2013-01-27 18:47:00,14.1,10.6,29.82,NW,315,0.0,0.0,86,0.00,,,0.00,VWS V14.01,2013-01-28 00:47:00,
2013-01-27 18:52:00,14.1,10.6,29.82,NW,315,0.0,0.0,86,0.00,,,0.00,VWS V14.01,2013-01-28 00:52:00,
2013-01-27 18:57:00,14.1,10.6,29.82,NW,315,0.0,0.0,86,0.00,,,0.00,VWS V14.01,2013-01-28 00:57:00,
2013-01-27 19:00:00,14.1,10.6,29.82,NW,315,0.0,0.0,86,0.00,,,0.00,VWS V14.01,2013-01-28 01:00:00,
2013-01-27 19:02:00,14.1,10.6,29.82,NW,315,0.0,0.0,86,0.00,,,0.00,VWS V14.01,2013-01-28 01:02:00,
2013-01-27 19:07:00,14.1,10.6,29.83,NW,315,0.0,0.0,86,0.00,,,0.00,VWS V14.01,2013-01-28 01:07:00,
2013-01-27 19:12:00,14.1,10.6,29.83,NW,315,0.0,0.0,86,0.00,,,0.00,VWS V14.01,2013-01-28 01:12:00,
2013-01-27 19:15:00,14.1,10.6,29.83,NW,315,0.0,0.0,86,0.00,,,0.00,VWS V14.01,2013-01-28 01:15:00,
2013-01-27 19:17:00,14.0,10.5,29.83,NW,315,3.0,3.0,86,0.00,,,0.00,VWS V14.01,2013-01-28 01:17:00,
2013-01-27 19:22:00,14.1,10.6,29.83,NW,315,1.0,3.0,86,0.00,,,0.00,VWS V14.01,2013-01-28 01:22:00,
2013-01-27 19:27:00,14.0,10.5,29.84,NW,315,3.0,3.0,86,0.00,,,0.00,VWS V14.01,2013-01-28 01:27:00,
2013-01-27 19:30:00,14.1,10.6,29.83,NW,315,2.0,3.0,86,0.00,,,0.00,VWS V14.01,2013-01-28 01:30:00,
2013-01-27 19:32:00,13.9,10.4,29.83,NW,315,0.0,4.0,86,0.00,,,0.00,VWS V14.01,2013-01-28 01:32:00,
2013-01-27 19:37:00,13.8,10.3,29.83,NW,315,2.0,4.0,86,0.00,,,0.00,VWS V14.01,2013-01-28 01:37:00,
2013-01-27 19:42:00,13.6,10.1,29.83,NW,315,0.0,3.0,86,0.00,,,0.00,VWS V14.01,2013-01-28 01:42:00,
2013-01-27 19:45:00,13.7,10.2,29.83,NW,315,2.0,4.0,86,0.00,,,0.00,VWS V14.01,2013-01-28 01:45:00,
2013-01-27 19:47:00,13.5,10.0,29.84,NW,315,2.0,4.0,86,0.00,,,0.00,VWS V14.01,2013-01-28 01:47:00,
2013-01-27 19:52:00,13.5,10.0,29.83,NW,315,2.0,4.0,86,0.00,,,0.00,VWS V14.01,2013-01-28 01:52:00,
2013-01-27 19:57:00,13.4,9.9,29.83,NW,315,2.0,4.0,86,0.00,,,0.00,VWS V14.01,2013-01-28 01:57:00,
2013-01-27 20:00:00,13.4,9.9,29.83,NW,315,1.0,4.0,86,0.00,,,0.00,VWS V14.01,2013-01-28 02:00:00,
2013-01-27 20:02:00,13.4,9.9,29.83,NW,315,2.0,4.0,86,0.00,,,0.00,VWS V14.01,2013-01-28 02:02:00,
2013-01-27 20:07:00,13.4,9.9,29.83,NW,315,2.0,4.0,86,0.00,,,0.00,VWS V14.01,2013-01-28 02:07:00,
2013-01-27 20:12:00,13.4,10.2,29.83,NW,315,2.0,3.0,87,0.00,,,0.00,VWS V14.01,2013-01-28 02:12:00,
2013-01-27 20:15:00,13.4,9.9,29.83,NW,315,3.0,4.0,86,0.00,,,0.00,VWS V14.01,2013-01-28 02:15:00,
2013-01-27 20:17:00,13.6,10.4,29.82,NW,315,2.0,3.0,87,0.00,,,0.00,VWS V14.01,2013-01-28 02:17:00,
2013-01-27 20:22:00,13.6,10.4,29.82,NW,315,0.0,3.0,87,0.00,,,0.00,VWS V14.01,2013-01-28 02:22:00,
2013-01-27 20:27:00,13.7,10.5,29.83,NW,315,2.0,3.0,87,0.00,,,0.00,VWS V14.01,2013-01-28 02:27:00,
2013-01-27 20:30:00,13.6,10.4,29.82,NW,315,1.0,4.0,87,0.00,,,0.00,VWS V14.01,2013-01-28 02:30:00,
2013-01-27 20:32:00,13.9,10.7,29.82,NW,315,0.0,4.0,87,0.00,,,0.00,VWS V14.01,2013-01-28 02:32:00,
2013-01-27 20:37:00,13.8,10.3,29.82,NW,315,0.0,4.0,86,0.00,,,0.00,VWS V14.01,2013-01-28 02:37:00,
2013-01-27 20:42:00,13.8,10.3,29.76,NW,315,0.0,0.0,86,0.00,,,0.00,VWS V14.01,2013-01-28 02:42:00,
2013-01-27 20:45:00,13.8,10.3,29.82,NW,315,0.0,4.0,86,0.00,,,0.00,VWS V14.01,2013-01-28 02:45:00,
2013-01-27 20:47:00,13.7,10.2,29.76,NW,315,0.0,0.0,86,0.00,,,0.00,VWS V14.01,2013-01-28 02:47:00,
2013-01-27 20:52:00,13.7,10.2,29.76,NW,315,0.0,3.0,86,0.00,,,0.00,VWS V14.01,2013-01-28 02:52:00,
2013-01-27 20:57:00,13.5,10.0,29.76,NW,315,2.0,3.0,86,0.00,,,0.00,VWS V14.01,2013-01-28 02:57:00,
2013-01-27 21:00:00,13.5,10.0,29.76,NW,315,1.0,3.0,86,0.00,,,0.00,VWS V14.01,2013-01-28 03:00:00,
2013-01-27 21:02:00,13.5,10.0,29.76,NW,315,1.0,2.0,86,0.00,,,0.00,VWS V14.01,2013-01-28 03:02:00,
2013-01-27 21:07:00,13.4,9.9,29.75,NW,315,0.0,2.0,86,0.00,,,0.00,VWS V14.01,2013-01-28 03:07:00,
2013-01-27 21:12:00,13.3,9.8,29.75,NW,315,0.0,2.0,86,0.00,,,0.00,VWS V14.01,2013-01-28 03:12:00,
2013-01-27 21:15:00,13.3,9.8,29.76,NW,315,0.0,2.0,86,0.00,,,0.00,VWS V14.01,2013-01-28 03:15:00,
2013-01-27 21:17:00,13.3,10.1,29.76,NW,315,0.0,0.0,87,0.00,,,0.00,VWS V14.01,2013-01-28 03:17:00,
2013-01-27 21:22:00,13.4,10.2,29.75,NW,315,0.0,0.0,87,0.00,,,0.00,VWS V14.01,2013-01-28 03:22:00,
2013-01-27 21:27:00,13.4,10.2,29.75,NW,315,0.0,0.0,87,0.00,,,0.00,VWS V14.01,2013-01-28 03:27:00,
2013-01-27 21:30:00,13.5,10.3,29.75,NW,315,0.0,0.0,87,0.00,,,0.00,VWS V14.01,2013-01-28 03:30:00,
2013-01-27 21:32:00,13.5,10.3,29.76,NW,315,2.0,3.0,87,0.00,,,0.00,VWS V14.01,2013-01-28 03:32:00,
2013-01-27 21:37:00,13.5,10.3,29.76,NW,315,0.0,3.0,87,0.00,,,0.00,VWS V14.01,2013-01-28 03:37:00,
2013-01-27 21:42:00,13.7,10.5,29.76,NW,315,0.0,3.0,87,0.00,,,0.00,VWS V14.01,2013-01-28 03:42:00,
2013-01-27 21:45:00,13.8,10.6,29.76,NW,315,0.0,3.0,87,0.00,,,0.00,VWS V14.01,2013-01-28 03:45:00,
2013-01-27 21:47:00,13.8,10.6,29.76,NW,315,0.0,0.0,87,0.00,,,0.00,VWS V14.01,2013-01-28 03:47:00,
2013-01-27 21:52:00,13.8,10.6,29.75,NW,315,0.0,0.0,87,0.00,,,0.00,VWS V14.01,2013-01-28 03:52:00,
2013-01-27 21:57:00,13.9,10.7,29.75,NW,315,0.0,0.0,87,0.00,,,0.00,VWS V14.01,2013-01-28 03:57:00,
2013-01-27 22:00:00,13.9,10.7,29.75,NW,315,0.0,1.0,87,0.00,,,0.00,VWS V14.01,2013-01-28 04:00:00,
2013-01-27 22:02:00,13.9,10.7,29.75,NW,315,0.0,0.0,87,0.00,,,0.00,VWS V14.01,2013-01-28 04:02:00,
2013-01-27 22:07:00,14.2,11.0,29.76,NW,315,0.0,3.0,87,0.00,,,0.00,VWS V14.01,2013-01-28 04:07:00,
2013-01-27 22:12:00,14.3,11.1,29.76,NW,315,0.0,3.0,87,0.00,,,0.00,VWS V14.01,2013-01-28 04:12:00,
2013-01-27 22:15:00,14.5,11.3,29.75,NW,315,0.0,3.0,87,0.00,,,0.00,VWS V14.01,2013-01-28 04:15:00,
2013-01-27 22:17:00,14.5,11.3,29.76,NW,315,0.0,0.0,87,0.00,,,0.00,VWS V14.01,2013-01-28 04:17:00,
2013-01-27 22:22:00,14.8,11.6,29.75,NW,315,0.0,3.0,87,0.00,,,0.00,VWS V14.01,2013-01-28 04:22:00,
2013-01-27 22:27:00,14.9,11.7,29.75,NW,315,0.0,4.0,87,0.00,,,0.00,VWS V14.01,2013-01-28 04:27:00,
2013-01-27 22:30:00,14.9,11.7,29.75,NW,315,0.0,4.0,87,0.00,,,0.00,VWS V14.01,2013-01-28 04:30:00,
2013-01-27 22:32:00,14.9,11.7,29.74,NW,315,0.0,0.0,87,0.00,,,0.00,VWS V14.01,2013-01-28 04:32:00,
2013-01-27 22:37:00,14.9,11.7,29.75,NW,315,0.0,0.0,87,0.00,,,0.00,VWS V14.01,2013-01-28 04:37:00,
2013-01-27 22:42:00,14.8,11.6,29.75,NW,315,0.0,0.0,87,0.00,,,0.00,VWS V14.01,2013-01-28 04:42:00,
2013-01-27 22:45:00,14.8,11.6,29.75,NW,315,0.0,0.0,87,0.00,,,0.00,VWS V14.01,2013-01-28 04:45:00,
2013-01-27 22:47:00,14.8,11.6,29.74,NW,315,0.0,0.0,87,0.00,,,0.00,VWS V14.01,2013-01-28 04:47:00,
2013-01-27 22:52:00,14.9,11.7,29.74,NW,315,0.0,0.0,87,0.00,,,0.00,VWS V14.01,2013-01-28 04:52:00,
2013-01-27 22:57:00,14.9,11.7,29.74,NW,315,0.0,0.0,87,0.00,,,0.00,VWS V14.01,2013-01-28 04:57:00,
2013-01-27 23:00:00,14.9,11.7,29.74,NW,315,0.0,0.0,87,0.00,,,0.00,VWS V14.01,2013-01-28 05:00:00,
2013-01-27 23:02:00,14.9,11.7,29.74,NW,315,0.0,0.0,87,0.00,,,0.00,VWS V14.01,2013-01-28 05:02:00,
2013-01-27 23:03:00,14.9,11.7,29.74,NW,315,0.0,0.0,87,0.00,,,0.00,VWS V14.01,2013-01-28 05:03:00,
2013-01-27 23:08:00,15.0,11.8,29.74,NW,315,0.0,0.0,87,0.00,,,0.00,VWS V14.01,2013-01-28 05:08:00,
2013-01-27 23:13:00,15.0,11.8,29.75,NW,315,0.0,3.0,87,0.00,,,0.00,VWS V14.01,2013-01-28 05:13:00,
2013-01-27 23:15:00,15.0,11.8,29.76,NW,315,0.0,3.0,87,0.00,,,0.00,VWS V14.01,2013-01-28 05:15:00,
2013-01-27 23:18:00,15.0,12.0,29.76,NW,315,0.0,0.0,88,0.00,,,0.00,VWS V14.01,2013-01-28 05:18:00,
2013-01-27 23:23:00,15.2,12.2,29.77,NW,315,2.0,3.0,88,0.00,,,0.00,VWS V14.01,2013-01-28 05:23:00,
2013-01-27 23:28:00,15.3,12.3,29.77,NW,315,3.0,4.0,88,0.00,,,0.00,VWS V14.01,2013-01-28 05:28:00,
2013-01-27 23:30:00,15.4,12.4,29.77,NW,315,0.0,4.0,88,0.00,,,0.00,VWS V14.01,2013-01-28 05:30:00,
2013-01-27 23:33:00,15.4,12.4,29.77,NW,315,1.0,3.0,88,0.00,,,0.00,VWS V14.01,2013-01-28 05:33:00,
2013-01-27 23:38:00,15.6,12.6,29.77,NW,315,1.0,3.0,88,0.00,,,0.00,VWS V14.01,2013-01-28 05:38:00,
2013-01-27 23:43:00,15.7,12.7,29.77,NW,315,0.0,3.0,88,0.00,,,0.00,VWS V14.01,2013-01-28 05:43:00,
2013-01-27 23:45:00,15.7,13.0,29.77,NW,315,0.0,3.0,89,0.00,,,0.00,VWS V14.01,2013-01-28 05:45:00,
2013-01-27 23:48:00,15.8,12.8,29.77,NW,315,1.0,1.0,88,0.00,,,0.00,VWS V14.01,2013-01-28 05:48:00,
2013-01-27 23:53:00,16.0,13.3,29.77,NW,315,0.0,2.0,89,0.00,,,0.00,VWS V14.01,2013-01-28 05:53:00,
2013-01-27 23:58:00,16.2,13.5,29.77,NW,315,0.0,2.0,89,0.00,,,0.00,VWS V14.01,2013-01-28 05:58:00,